[sarex] 2 Line ISS Keps 10-2

Dave Larsen PhD doc at volcano.net
Sun Oct 1 19:35:41 PDT 2006


ISS
1 25544U 98067A   06274.32903458  .00016984  00000-0  10845-3 0  7776
2 25544 051.6376 000.6836 0012830 046.1444 077.7582 15.76409295449900


More information about the SAREX mailing list